Starlink 36306

operational
NORAD ID: 68160 Int'l Des: 2026-049 Owner: SPXS Country: US Constellation: starlink
LEOCIRCULARRETROGRADE

Über Starlink 36306

Beschreibung wird geladen...

Live-Position

3D-Globus wird geladen...

Nächste Überflüge

Höhenverlauf

Altitude vs Time

uPlot chart will show altitude changes over time

Zweizeiliger Elementsatz

1 68160C 26049U 26072.91229167 .00485560 00000+0 56417-3 0 721
2 68160 97.2816 91.9117 0010103 251.4256 105.5010 16.08229935 12
Epoch: 13. März 2026 • Age: 71 hours

Aktueller Status

Höhe 264.7 km
Geschwindigkeit 7.75 km/s
Subsatellitenpunkt 67.82°N, 89.19°W
Startdatum 13. März 2026
Alter 2 days
Typ internet

Technische Details

Klassifizierung Payload
Masse 575.00 kg
Trockenmasse 530.00 kg
Gesamtmasse 575.00 kg
Länge 0.30 m
Durchmesser 4.10 m
Spannweite 29.00 m
Form Box + pan
Hersteller SPXS
Bus-Typ Starlink V2MO
Phasenstatus In Orbit
Besitzer/Staat SPXS/US

Große Konstellationen

Loading constellations...